Weather History for KNHK - May, 2013

Change the Weather History Date:

Tuesday, May 28, 2013

  Actual Average Record
Temperature  
Mean Temperature 72 °F -  
Max Temperature 84 °F 76 °F 90 °F (2012)
Min Temperature 61 °F 59 °F 46 °F (1997)
Cooling Degree Days 8    
Growing Degree Days 22 (Base 50)    
Moisture  
Dew Point 61 °F    
Average Humidity 70    
Maximum Humidity 84    
Minimum Humidity 49    
Precipitation  
Precipitation 0.00 in - - ()
Sea Level Pressure  
Sea Level Pressure 30.14 in    
Wind  
Wind Speed 5 mph (SSE)    
Max Wind Speed 17 mph    
Max Gust Speed 21 mph    
Visibility 10 miles    
Events Thunderstorm    
Averages and records for this station are not official NWS values.
T = Trace of Precipitation, MM = Missing Value Source: NWS Daily Summary

Daily Weather History Graph

Daily Weather History Graph

Search for Another Location

Airport or City:

Trip Planner

Search our weather history database for the weather conditions in past years. The results will help you decide how hot, cold, wet, or windy it might be!

Date:

Astronomy

May. 28, 2013 Rise Set
Actual Time 5:45 AM EDT 8:20 PM EDT
Civil Twilight 5:14 AM EDT 8:51 PM EDT
Nautical Twilight 4:36 AM EDT 9:29 PM EDT
Astronomical Twilight 3:53 AM EDT 10:12 PM EDT
Moon 11:44 PM EDT (5/28) 9:29 AM EDT (5/28)
Length of Visible Light 15h 36m
Length of Day
14h 35m
Waning Gibbous, 83% of the Moon is Illuminated
May 28
Waning Gibbous
May 31
Last Quarter
Jun 8
New
Jun 16
First Quarter
Jun 23
Full

Hourly Weather History & Observations

Time (EDT) Temp. Heat Index Dew Point Humidity Pressure Visibility Wind Dir Wind Speed Gust Speed Precip Events Conditions
12:52 AM 63.0 °F - 55.0 °F 75% 30.21 in 10.0 mi Calm Calm - N/A   Overcast
1:52 AM 62.1 °F - 55.9 °F 80% 30.20 in 10.0 mi Calm Calm - N/A   Overcast
2:52 AM 64.0 °F - 57.0 °F 78% 30.19 in 10.0 mi Calm Calm - N/A   Mostly Cloudy
3:52 AM 61.0 °F - 55.9 °F 83% 30.18 in 10.0 mi SSE 4.6 mph - N/A   Partly Cloudy
4:52 AM 64.0 °F - 55.0 °F 73% 30.17 in 10.0 mi SSE 4.6 mph - N/A   Partly Cloudy
5:52 AM 64.0 °F - 54.0 °F 70% 30.18 in 10.0 mi South 3.5 mph - N/A   Mostly Cloudy
6:52 AM 63.0 °F - 53.1 °F 70% 30.19 in 10.0 mi South 4.6 mph - N/A   Mostly Cloudy
7:52 AM 66.0 °F - 55.0 °F 68% 30.19 in 10.0 mi South 6.9 mph 18.4 mph N/A   Mostly Cloudy
8:52 AM 66.9 °F - 57.0 °F 70% 30.18 in 10.0 mi SSW 8.1 mph 16.1 mph N/A   Mostly Cloudy
9:52 AM 72.0 °F - 60.1 °F 66% 30.17 in 10.0 mi SSW 11.5 mph 16.1 mph N/A   Mostly Cloudy
10:52 AM 78.1 °F - 62.1 °F 58% 30.16 in 10.0 mi SSW 10.4 mph 17.3 mph N/A   Scattered Clouds
11:52 AM 80.1 °F 81.2 °F 62.1 °F 54% 30.16 in 10.0 mi South 8.1 mph 16.1 mph N/A   Scattered Clouds
12:52 PM 82.0 °F 83.0 °F 62.1 °F 51% 30.15 in 10.0 mi SW 9.2 mph - N/A   Mostly Cloudy
1:52 PM 82.9 °F 84.0 °F 63.0 °F 51% 30.14 in 10.0 mi Variable 5.8 mph - N/A   Scattered Clouds
2:52 PM 77.0 °F - 64.0 °F 64% 30.14 in 10.0 mi ESE 9.2 mph - N/A   Mostly Cloudy
3:52 PM 84.0 °F 84.9 °F 63.0 °F 49% 30.12 in 10.0 mi South 8.1 mph - N/A   Scattered Clouds
4:52 PM 84.0 °F 85.4 °F 64.0 °F 51% 30.10 in 10.0 mi SSE 6.9 mph - N/A   Mostly Cloudy
5:52 PM 82.9 °F 84.6 °F 64.9 °F 54% 30.09 in 10.0 mi SSE 8.1 mph - N/A   Overcast
6:52 PM 82.0 °F 83.8 °F 64.9 °F 56% 30.09 in 10.0 mi Variable 5.8 mph - N/A   Mostly Cloudy
7:52 PM 73.0 °F - 64.0 °F 73% 30.09 in 10.0 mi ESE 8.1 mph - N/A   Mostly Cloudy
8:32 PM 69.8 °F - 64.4 °F 83% 30.09 in 10.0 mi ESE 5.8 mph - N/A   Mostly Cloudy
8:50 PM 69.8 °F - 64.4 °F 83% 30.09 in 10.0 mi ESE 3.5 mph - N/A Thunderstorm Thunderstorm
8:52 PM 70.0 °F - 64.9 °F 84% 30.09 in 10.0 mi SE 3.5 mph - N/A   Overcast
9:02 PM 69.8 °F - 64.4 °F 83% 30.09 in 10.0 mi ESE 3.5 mph - N/A Thunderstorm Overcast
9:39 PM 71.6 °F - 64.4 °F 78% 30.12 in 10.0 mi NNE 17.3 mph 20.7 mph N/A Thunderstorm Thunderstorm
9:52 PM 72.0 °F - 64.0 °F 76% 30.12 in 10.0 mi East 6.9 mph - N/A Thunderstorm Overcast
10:20 PM 71.6 °F - 64.4 °F 78% 30.13 in 10.0 mi East 4.6 mph - N/A   Overcast
10:49 PM 69.8 °F - 64.4 °F 83% 30.13 in 10.0 mi ESE 6.9 mph - N/A   Overcast
10:52 PM 70.0 °F - 64.0 °F 81% 30.13 in 10.0 mi ESE 5.8 mph - N/A   Overcast
11:52 PM 73.0 °F - 63.0 °F 71% 30.12 in 10.0 mi SSE 5.8 mph - N/A   Clear